Regional Weather Roundup
Issued by NWS Midland/Odessa, TX

Home | Current Version | Previous Version | Text Only | Print | Product List | Glossary On
Versions: 1 2 3 4 5 6 7 8 9 10 11 12 13 14 15 16 17 18 19 20 21 22 23 24 25 26 27 28 29 30 31 32 33 34 35 36 37 38 39 40 41 42 43 44 45 46 47 48 49 50
000
ASUS44 KMAF 280710
RWRMAF
MIDLAND AREA WEATHER ROUNDUP
NATIONAL WEATHER SERVICE MIDLAND TX
100 AM CST WED JAN 28 2015

...IN SOUTHWEST TEXAS AND SOUTHEAST NEW MEXICO...

CITY           SKY/WX    TMP DP  RH WIND       PRES   REMARKS
ALPINE         PTCLDY    50  43  76 SW6       30.29F
ANDREWS        FAIR      52  35  52 SW8       30.16F
ARTESIA        CLEAR     46  39  76 CALM      30.17F
BIG SPRING     CLEAR     49  36  61 SE6       30.17S
CARLSBAD       CLEAR     47  39  74 NW5       30.15S
DRYDEN           N/A     56  39  53 N5        30.14F
FORT STOCKTON  CLEAR     56  44  64 SW14      30.17F
GUAD PASS      CLEAR     50  39  66 SW10      30.27S
HOBBS          CLEAR     45  36  70 CALM      30.17F
MARFA          PTCLDY    39  37  93 N7        30.27F WCI  34
MIDLAND AIRPK  CLEAR     55  36  48 CALM      30.16F
MIDLAND INTL   CLEAR     52  38  58 SW7       30.15F
ODESSA         CLEAR     54  35  48 S3        30.16F
PECOS          PTCLDY    44  39  84 CALM      30.16S
PRESIDIO       FAIR      56  45  66 N10       30.18F
SEMINOLE       CLEAR     47  35  62 W7        30.16F
SNYDER         CLEAR    N/A N/A N/A S8        30.14F
WINK           CLEAR     45  34  65 NW3       30.15F
$$
...OTHER STATIONS IN TEXAS...

CITY           SKY/WX    TMP DP  RH WIND       PRES   REMARKS
ABILENE        CLEAR     51  37  58 S8        30.12F
AMARILLO       CLEAR     48  34  58 SW10      30.07F
AUSTIN         CLEAR     45  42  89 CALM      30.14S
BROWNSVILLE      N/A     54  53  97 S3        30.17F FOG
CORPUS CHRISTI CLEAR     52  47  83 SW6       30.15S
DALLAS FTW     PTCLDY    53  39  59 S8        30.10F
DEL RIO        CLEAR     57  39  51 NE8       30.13F
EL PASO        MOCLDY    50  41  71 E3        30.20F
HOUSTON INT    PTCLDY    49  45  86 CALM      30.14F
LUBBOCK        CLEAR     47  35  63 W9        30.12F
SAN ANGELO     CLEAR     47  38  71 SW5       30.14S
SAN ANTONIO    CLEAR     51  40  65 NW5       30.15S
WACO           CLEAR     44  41  89 SW5       30.13S
WICHITA FALLS  NOT AVBL
$$
...OTHER LOCATIONS IN NEW MEXICO...

CITY           SKY/WX    TMP DP  RH WIND       PRES   REMARKS
ALAMAGORDO     PTCLDY    43  34  70 CALM      30.22F
ALBUQUERQUE    PTCLDY    44  29  55 E5        30.25F
CANNON AFB     CLEAR     46  37  70 W9        30.14F
CLOVIS         CLEAR     48  36  61 W14       30.14F
HOLLOMAN AFB   PTCLDY    42  36  81 E5        30.20F WCI  39
ROSWELL        CLEAR     44  37  76 CALM      30.16F
RUIDOSO        PTCLDY    43  36  75 W8        30.29F WCI  38
SANTA FE       CLEAR     41  33  73 N9        30.25S WCI  35
TRUTH OR CONSE CLEAR     47  35  63 W5        30.23R
TUCUMCARI      CLEAR     45  36  70 SW9       30.07F
$$



USA.gov is the U.S. government's official web portal to all federal, state and local government web resources and services.